Hourly Data Report for July 27, 2021

LYNN LAKE
MANITOBA
Current Station Operator: NAVCAN

56°51'50.000" N
101°04'34.000" W
356.60 m
5061645
71078
YYL

Download Data

Hourly Data (July 2021)
Hourly Data Report for July 27, 2021
TIME
LST
Temp Definition
°C
Dew Point Definition
°C
Rel Hum Definition
%
Precip. Amount Definition
mm

Wind Dir Definition
10's deg

Wind Spd Definition
km/h
Visibility Definition
km
Stn Press Definition
kPa
Hmdx Definition


Wind Chill Definition


Weather Definition


00:00 12.5 8.0 74 0.0 23 11 16.1 96.78     LegendNANA
01:00 12.9 8.0 72 0.0 23 13 16.1 96.78     LegendNANA
02:00 14.1 9.3 73 0.0 25 13 16.1 96.80     LegendNANA
03:00 13.9 11.1 83 0.0 22 5 16.1 96.74     LegendNANA
04:00 14.1 11.7 85 0.2 26 5 16.1 96.76     Rain
05:00 13.9 12.6 92 0.8 22 9 16.1 96.74     LegendNANA
06:00 13.3 12.2 93 0.0 21 11 16.1 96.75     LegendNANA
07:00 16.0 12.7 81 0.0 21 11 16.1 96.72     LegendNANA
08:00 18.5 12.7 69 0.0 23 13 16.1 96.69     LegendNANA
09:00 21.1 12.8 59 0.0 25 15 16.1 96.67     LegendNANA
10:00 22.5 12.9 54 0.0 25 18 16.1 96.63 25   LegendNANA
11:00 23.0 12.5 51 0.0 26 11 16.1 96.61 26   LegendNANA
12:00 23.6 13.1 51 0.0 21 18 16.1 96.59 26   LegendNANA
13:00 23.6 11.7 47 0.0 27 18 16.1 96.57 26   LegendNANA
14:00 23.1 11.8 49 0.0 25 15 16.1 96.55 25   LegendNANA
15:00 22.9 10.6 45 0.0 24 15 16.1 96.53     LegendNANA
16:00 23.0 10.5 45 0.0 25 18 16.1 96.53 25   LegendNANA
17:00 16.7 12.4 76 0.0 31 35 12.9 96.72     Thunderstorms, Rain
18:00 18.7 13.4 71 0.0 26 9 16.1 96.66     LegendNANA
19:00 18.4 12.9 70 0.0 24 11 16.1 96.63     LegendNANA
20:00 18.1 12.5 70 0.0 26 11 16.1 96.67     LegendNANA
21:00 16.7 12.5 76 0.0 28 5 16.1 96.74     LegendNANA
22:00 15.2 12.3 83 0.0 28 9 16.1 96.79     LegendNANA
23:00 14.7 12.1 84 0.0 27 11 16.1 96.81     LegendNANA

Notes on Data Quality.

Legend

  • E = Estimated
  • M = Missing
  • NA = Not Available*
  • [empty] = Indicates an unobserved value
Date modified: